Time,TemperatureF,DewpointF,PressureIn,WindDirection,WindDirectionDegrees,WindSpeedMPH,WindSpeedGustMPH,Humidity,HourlyPrecipIn,Conditions,Clouds,dailyrainin,SolarRadiationWatts/m^2,SoftwareType,DateUTC
2013-08-14 00:02:00,72.0,70.0,-100.00,SW,220,3.0,6.0,94,0.00,,,1.79,0.000000,,2013-08-14 05:02:00,
2013-08-14 00:42:00,72.0,70.0,-100.00,SSW,208,0.0,6.0,94,0.00,,,1.79,0.000000,,2013-08-14 05:42:00,
2013-08-14 00:52:00,72.0,70.0,-100.00,SSW,208,0.0,6.0,94,0.00,,,1.79,0.000000,,2013-08-14 05:52:00,
2013-08-14 01:01:00,72.0,70.0,-100.00,SSW,208,0.0,6.0,94,0.00,,,1.79,0.000000,,2013-08-14 06:01:00,
2013-08-14 01:42:00,71.0,69.0,-100.00,SSW,203,0.0,2.0,94,0.00,,,1.79,0.000000,,2013-08-14 06:42:00,
2013-08-14 01:52:00,71.0,69.0,-100.00,SSW,203,0.0,2.0,94,0.00,,,1.79,0.000000,,2013-08-14 06:52:00,
2013-08-14 02:01:00,71.0,69.0,-100.00,SSW,203,0.0,2.0,94,0.00,,,1.79,0.000000,,2013-08-14 07:01:00,
2013-08-14 02:42:00,71.0,69.0,-100.00,NE,53,0.0,0.0,94,0.00,,,1.78,0.000000,,2013-08-14 07:42:00,
2013-08-14 02:52:00,71.0,69.0,-100.00,NE,53,0.0,0.0,94,0.00,,,1.78,0.000000,,2013-08-14 07:52:00,
2013-08-14 03:01:00,71.0,69.0,-100.00,NE,53,0.0,0.0,94,0.00,,,1.78,0.000000,,2013-08-14 08:01:00,
2013-08-14 03:42:00,71.0,69.0,-100.00,SSW,197,0.0,0.0,94,0.00,,,1.78,0.000000,,2013-08-14 08:42:00,
2013-08-14 03:52:00,71.0,69.0,-100.00,SSW,197,0.0,0.0,94,0.00,,,1.78,0.000000,,2013-08-14 08:52:00,
2013-08-14 04:02:00,71.0,69.0,-100.00,SSW,197,0.0,0.0,94,0.00,,,1.78,0.000000,,2013-08-14 09:02:00,
2013-08-14 04:43:00,71.0,69.0,-100.00,North,359,0.0,2.0,94,0.00,,,1.78,0.000000,,2013-08-14 09:43:00,
2013-08-14 04:53:00,71.0,69.0,-100.00,North,359,0.0,2.0,94,0.00,,,1.78,0.000000,,2013-08-14 09:53:00,
2013-08-14 05:03:00,71.0,69.0,-100.00,North,359,0.0,2.0,94,0.00,,,1.78,0.000000,,2013-08-14 10:03:00,
2013-08-14 05:42:00,71.0,69.0,-100.00,NW,316,0.0,1.0,94,0.02,,,1.80,0.000000,,2013-08-14 10:42:00,
2013-08-14 05:52:00,71.0,69.0,-100.00,NW,316,0.0,1.0,94,0.02,,,1.80,0.000000,,2013-08-14 10:52:00,
2013-08-14 06:02:00,71.0,69.0,-100.00,NW,316,0.0,1.0,94,0.02,,,1.80,0.000000,,2013-08-14 11:02:00,
2013-08-14 06:42:00,71.0,69.0,-100.00,NNE,30,0.0,2.0,94,0.03,,,1.83,0.000000,,2013-08-14 11:42:00,
2013-08-14 06:52:00,71.0,69.0,-100.00,NNE,30,0.0,2.0,94,0.03,,,1.83,0.000000,,2013-08-14 11:52:00,
2013-08-14 07:01:00,71.0,69.0,-100.00,NNE,30,0.0,2.0,94,0.03,,,1.83,0.000000,,2013-08-14 12:01:00,
2013-08-14 07:42:00,71.0,69.0,-100.00,NNE,14,4.0,8.0,94,0.74,,,2.57,9.000000,,2013-08-14 12:42:00,
2013-08-14 07:52:00,71.0,69.0,-100.00,NNE,14,4.0,8.0,94,0.74,,,2.57,9.000000,,2013-08-14 12:52:00,
2013-08-14 08:02:00,71.0,69.0,-100.00,NNE,14,4.0,8.0,94,0.74,,,2.57,9.000000,,2013-08-14 13:02:00,
2013-08-14 08:42:00,71.0,69.0,-100.00,SW,226,0.0,6.0,94,0.38,,,2.95,2.000000,,2013-08-14 13:42:00,
2013-08-14 08:52:00,71.0,69.0,-100.00,SW,226,0.0,6.0,94,0.38,,,2.95,2.000000,,2013-08-14 13:52:00,
2013-08-14 09:01:00,71.0,69.0,-100.00,SW,226,0.0,6.0,94,0.38,,,2.95,2.000000,,2013-08-14 14:01:00,
2013-08-14 09:42:00,72.0,70.0,-100.00,NE,53,0.0,6.0,94,1.28,,,4.23,4.000000,,2013-08-14 14:42:00,
2013-08-14 09:52:00,72.0,70.0,-100.00,NE,53,0.0,6.0,94,1.28,,,4.23,4.000000,,2013-08-14 14:52:00,
2013-08-14 10:02:00,72.0,70.0,-100.00,NE,53,0.0,6.0,94,1.28,,,4.23,4.000000,,2013-08-14 15:02:00,
2013-08-14 10:43:00,72.0,70.0,-100.00,SW,218,1.0,5.0,94,0.57,,,4.80,12.000000,,2013-08-14 15:43:00,
2013-08-14 10:57:00,72.0,70.0,-100.00,SW,218,1.0,5.0,94,0.57,,,4.80,12.000000,,2013-08-14 15:57:00,
2013-08-14 11:04:00,72.0,70.0,-100.00,SW,218,1.0,5.0,94,0.57,,,4.80,12.000000,,2013-08-14 16:04:00,
2013-08-14 11:43:00,72.0,70.0,-100.00,SSW,209,2.0,5.0,94,0.13,,,4.93,25.000000,,2013-08-14 16:43:00,
2013-08-14 12:05:00,72.0,70.0,-100.00,SSW,209,2.0,5.0,94,0.13,,,4.93,25.000000,,2013-08-14 17:05:00,
2013-08-14 12:44:00,75.0,73.0,-100.00,SW,215,2.0,8.0,93,0.05,,,4.98,174.000000,,2013-08-14 17:44:00,
2013-08-14 12:55:00,75.0,73.0,-100.00,SW,215,2.0,8.0,93,0.05,,,4.98,174.000000,,2013-08-14 17:55:00,
2013-08-14 14:03:00,76.0,73.0,-100.00,SW,221,1.0,6.0,89,0.00,,,4.98,184.000000,,2013-08-14 19:03:00,
2013-08-14 14:42:00,80.0,73.0,-100.00,SW,233,3.0,6.0,78,0.00,,,4.98,353.000000,,2013-08-14 19:42:00,
2013-08-14 14:56:00,80.0,73.0,-100.00,SW,233,3.0,6.0,78,0.00,,,4.98,353.000000,,2013-08-14 19:56:00,
2013-08-14 15:04:00,80.0,73.0,-100.00,SW,233,3.0,6.0,78,0.00,,,4.98,353.000000,,2013-08-14 20:04:00,
2013-08-14 15:49:00,81.0,73.0,-100.00,WSW,251,2.0,6.0,77,0.00,,,4.98,251.000000,,2013-08-14 20:49:00,
2013-08-14 16:05:00,81.0,73.0,-100.00,WSW,251,2.0,6.0,77,0.00,,,4.98,251.000000,,2013-08-14 21:05:00,
2013-08-14 16:45:00,85.0,75.0,-100.00,West,269,3.0,7.0,71,0.00,,,4.65,482.000000,,2013-08-14 21:45:00,
2013-08-14 16:55:00,85.0,75.0,-100.00,West,269,3.0,7.0,71,0.00,,,4.65,482.000000,,2013-08-14 21:55:00,
2013-08-14 17:04:00,85.0,75.0,-100.00,West,269,3.0,7.0,71,0.00,,,4.65,482.000000,,2013-08-14 22:04:00,
2013-08-14 17:44:00,84.0,74.0,-100.00,West,272,1.0,5.0,71,0.00,,,3.48,397.000000,,2013-08-14 22:44:00,
2013-08-14 17:55:00,84.0,74.0,-100.00,West,272,1.0,5.0,71,0.00,,,3.48,397.000000,,2013-08-14 22:55:00,
2013-08-14 18:06:00,84.0,74.0,-100.00,West,272,1.0,5.0,71,0.00,,,3.48,397.000000,,2013-08-14 23:06:00,
2013-08-14 18:46:00,77.0,74.0,-100.00,SW,235,3.0,6.0,91,0.23,,,3.57,33.000000,,2013-08-14 23:46:00,
2013-08-14 18:56:00,77.0,74.0,-100.00,SW,235,3.0,6.0,91,0.23,,,3.57,33.000000,,2013-08-14 23:56:00,
2013-08-14 19:04:00,77.0,74.0,-100.00,SW,235,3.0,6.0,91,0.23,,,3.57,33.000000,,2013-08-15 00:04:00,
2013-08-14 19:43:00,78.0,75.0,-100.00,WSW,251,0.0,3.0,91,0.00,,,3.48,79.000000,,2013-08-15 00:43:00,
2013-08-14 19:52:00,78.0,75.0,-100.00,WSW,251,0.0,3.0,91,0.00,,,3.48,79.000000,,2013-08-15 00:52:00,
2013-08-14 20:01:00,78.0,75.0,-100.00,WSW,251,0.0,3.0,91,0.00,,,3.48,79.000000,,2013-08-15 01:01:00,
2013-08-14 20:42:00,75.0,73.0,-100.00,SE,144,0.0,2.0,92,0.00,,,3.43,9.000000,,2013-08-15 01:42:00,
2013-08-14 20:52:00,75.0,73.0,-100.00,SE,144,0.0,2.0,92,0.00,,,3.43,9.000000,,2013-08-15 01:52:00,
2013-08-14 21:01:00,75.0,73.0,-100.00,SE,144,0.0,2.0,92,0.00,,,3.43,9.000000,,2013-08-15 02:01:00,
2013-08-14 21:52:00,74.0,72.0,-100.00,SE,125,1.0,5.0,93,0.04,,,3.47,0.000000,,2013-08-15 02:52:00,
2013-08-14 22:02:00,74.0,72.0,-100.00,SE,125,1.0,5.0,93,0.04,,,3.47,0.000000,,2013-08-15 03:02:00,
2013-08-14 22:44:00,74.0,72.0,-100.00,NNE,26,0.0,3.0,93,0.00,,,3.47,0.000000,,2013-08-15 03:44:00,
2013-08-14 22:53:00,74.0,72.0,-100.00,NNE,26,0.0,3.0,93,0.00,,,3.47,0.000000,,2013-08-15 03:53:00,
2013-08-14 23:03:00,74.0,72.0,-100.00,NNE,26,0.0,3.0,93,0.00,,,3.47,0.000000,,2013-08-15 04:03:00,
2013-08-14 23:43:00,74.0,72.0,-100.00,SW,229,0.0,0.0,93,0.00,,,3.47,0.000000,,2013-08-15 04:43:00,
2013-08-14 23:52:00,74.0,72.0,-100.00,SW,229,0.0,0.0,93,0.00,,,3.47,0.000000,,2013-08-15 04:52:00,